This is the latest recevied weather packets stored in our database for station/object K3PPP. If no packets are shown the sender has not sent any weather packets the latest 10 day(s).
| Time | Temp. | Humidity | Pressure | Rain* | Wind** | Luminosity | Snow |
|---|---|---|---|---|---|---|---|
| 1777638292 | 5° C | 88% | 1013.7 hPa | 0 mm | - | 147 W/m² | - |
| 1777637988 | 4.44° C | 89% | 1013.7 hPa | 0 mm | - | 108 W/m² | - |
| 1777637685 | 4.44° C | 90% | 1013.9 hPa | 0 mm | - | 54 W/m² | - |
| 1777637382 | 4.44° C | 90% | 1013.7 hPa | 0 mm | - | 266 W/m² | - |
| 1777637078 | 3.89° C | 91% | 1013.7 hPa | 0 mm | - | 229 W/m² | - |
| 1777636774 | 3.89° C | 91% | 1013.6 hPa | 0 mm | - | 99 W/m² | - |
| 1777636471 | 3.89° C | 91% | 1013.8 hPa | 0 mm | - | 56 W/m² | - |
| 1777636167 | 3.33° C | 92% | 1014 hPa | 0 mm | - | 90 W/m² | - |
| 1777635861 | 3.33° C | 93% | 1013.9 hPa | 0 mm | - | 76 W/m² | - |
| 1777635558 | 3.33° C | 94% | 1014 hPa | 0 mm | - | 68 W/m² | - |
| 1777635255 | 2.78° C | 96% | 1013.7 hPa | 0 mm | - | 61 W/m² | - |
| 1777634952 | 2.78° C | 97% | 1014 hPa | 0 mm | - | 55 W/m² | - |
| 1777634649 | 2.78° C | 98% | 1013.9 hPa | 0 mm | - | 51 W/m² | - |
| 1777634346 | 2.78° C | 99% | 1013.9 hPa | 0 mm | - | 45 W/m² | - |
| 1777634042 | 2.22° C | 99% | 1013.7 hPa | 0 mm | - | 40 W/m² | - |
| 1777633739 | 2.22° C | 99% | 1013.9 hPa | 0 mm | - | 38 W/m² | - |
| 1777633437 | 2.22° C | 99% | 1013.8 hPa | 0 mm | - | 31 W/m² | - |
| 1777633134 | 2.22° C | 99% | 1013.8 hPa | 0 mm | - | 28 W/m² | - |
| 1777632830 | 1.67° C | 99% | 1013.8 hPa | 0 mm | - | 24 W/m² | - |
| 1777632526 | 1.67° C | 99% | 1013.7 hPa | 0 mm | - | 20 W/m² | - |
| 1777632224 | 1.67° C | 99% | 1013.8 hPa | 0 mm | - | 16 W/m² | - |
| 1777631921 | 1.67° C | 99% | 1013.9 hPa | 0 mm | - | 13 W/m² | - |
| 1777631620 | 1.67° C | 99% | 1014 hPa | 0 mm | - | 10 W/m² | - |
| 1777631316 | 1.67° C | 99% | 1013.7 hPa | 0 mm | - | 7 W/m² | - |
| 1777631013 | 1.67° C | 99% | 1013.8 hPa | 0 mm | - | 5 W/m² | - |
* Rain latest hour (hover to see other rain measurements)
** Current wind speed in m/s (hover to see current wind gust speed)